Theta_e
313 312 311 318 319 320 323 325 327 329 330 334 337 345 354 351 350 352 347 354 352 342 345 346 343 344 346 346 345 343 339 336 333 327 322 320 321 321 322 324 325 326 326 326 327 327 328 331 328
311 313 317 321 319 321 324 326 328 329 330 336 337 351 354 355 348 348 353 354 353 339 344 343 340 344 345 346 345 343 340 337 335 330 322 320 322 323 326 327 327 326 327 328 328 326 323 324 325
311 317 322 314 314 321 324 326 328 330 332 335 334 347 353 355 354 354 355 354 353 340 344 338 338 339 341 343 345 344 342 338 337 333 324 320 323 325 330 330 329 329 328 325 324 323 322 322 322
311 317 320 311 312 316 321 323 326 328 331 334 335 344 346 357 356 355 355 356 342 342 343 337 336 336 336 339 343 344 343 339 338 336 328 321 322 324 328 328 326 324 324 324 324 323 322 322 322
315 317 312 311 311 314 317 321 323 324 326 333 333 346 349 357 356 355 356 357 343 341 342 338 337 335 334 336 341 344 344 340 339 338 331 324 321 324 326 327 324 324 325 326 326 323 323 323 325
316 317 311 312 312 315 316 319 320 323 326 328 335 346 347 357 355 357 357 357 341 342 342 338 337 333 331 333 339 344 344 340 340 339 332 327 322 323 325 325 325 324 325 327 328 329 326 326 328
316 314 313 312 313 315 316 320 319 320 321 325 335 343 348 355 354 356 356 354 352 341 341 338 335 331 330 333 336 341 344 342 341 339 332 327 324 322 324 325 324 324 324 324 326 328 330 332 332
320 317 317 316 315 315 317 320 322 321 322 325 334 340 345 355 354 356 354 353 350 347 338 337 333 330 330 333 338 342 343 342 340 336 330 326 326 323 324 325 325 324 323 323 323 323 323 324 325
322 319 320 319 317 316 320 318 323 324 323 327 332 344 353 354 354 355 352 350 349 349 343 336 332 329 330 333 339 341 340 338 335 330 326 325 326 324 322 325 326 325 324 324 324 324 324 323 323
320 321 321 318 317 318 318 319 322 323 323 324 342 348 352 354 353 354 351 350 350 350 346 335 332 329 329 332 333 335 334 330 329 326 325 326 325 323 321 324 326 326 326 325 324 324 324 324 325
319 323 320 320 320 320 319 320 322 321 319 322 323 345 347 352 353 354 351 349 349 349 344 335 332 329 328 328 328 328 327 326 324 324 325 323 322 327 324 322 326 337 328 330 323 334 332 330 340
313 319 321 321 321 320 319 321 321 322 321 322 322 334 342 346 351 354 353 350 350 349 348 336 333 329 330 329 330 330 328 325 324 323 323 321 323 333 338 328 338 341 341 340 338 338 338 337 338
315 315 318 321 322 321 321 320 320 321 322 322 322 322 338 338 343 350 354 352 350 349 348 345 339 333 336 336 332 333 333 332 331 330 325 323 332 338 339 337 339 342 343 344 342 343 342 341 341
315 318 317 318 320 321 321 319 320 321 322 322 322 322 330 336 335 340 346 352 350 349 347 346 344 340 342 343 343 336 339 341 342 341 340 327 338 343 343 342 341 344 342 342 344 343 342 341 339
316 316 319 319 319 321 321 319 319 321 322 321 322 322 322 333 339 341 343 345 352 350 345 345 343 343 346 345 345 343 345 346 346 346 347 342 339 346 348 346 344 346 344 344 345 342 341 339 339
318 317 317 319 320 321 319 319 319 321 320 320 322 322 321 321 324 335 337 343 348 353 348 346 345 345 349 350 347 346 346 347 347 348 348 348 348 345 349 348 348 348 347 346 345 344 343 342 339
319 319 319 319 320 321 321 320 319 321 320 320 321 321 321 321 320 321 329 338 343 353 350 338 339 347 347 353 347 347 348 349 349 351 349 348 349 348 346 346 344 346 348 345 345 343 343 342 343
321 318 319 319 320 321 321 321 318 320 320 320 321 321 321 320 320 320 320 331 348 350 349 347 343 342 346 349 350 349 351 348 348 350 349 349 349 347 339 339 343 346 346 343 342 342 338 339 340
320 319 319 320 320 321 321 320 318 318 319 318 320 321 320 320 320 320 320 321 349 350 351 345 340 338 349 349 349 351 348 349 348 349 351 350 349 347 348 347 344 342 341 342 343 340 338 337 339
318 320 319 321 322 320 319 320 319 319 318 319 319 321 320 320 319 321 320 322 348 354 351 350 340 339 350 350 347 347 349 349 348 349 350 348 346 348 349 344 340 341 342 343 340 338 339 336 336
315 319 319 320 321 321 320 320 320 320 319 321 320 321 321 320 320 321 321 328 346 349 351 347 336 341 339 349 350 349 347 347 347 349 349 350 348 346 345 345 343 341 342 340 337 339 339 335 332
316 318 321 321 320 320 321 321 320 320 319 319 320 320 321 321 320 320 320 338 348 348 351 352 345 337 348 347 349 349 349 347 348 348 348 348 346 346 345 342 342 338 334 333 334 333 329 330 329
314 317 320 321 321 322 321 319 321 319 320 320 319 320 321 321 321 321 326 335 341 345 348 349 336 343 348 348 348 350 348 348 348 347 347 346 344 343 344 342 337 334 333 332 328 325 325 324 324
314 316 319 320 321 324 324 319 318 320 320 320 319 321 322 322 322 321 332 340 344 347 346 345 330 344 348 349 347 349 348 347 347 346 344 342 344 341 340 335 333 330 326 325 324 322 322 320 320
312 314 320 322 323 329 325 323 319 321 320 320 320 322 323 322 322 335 337 346 349 347 345 337 346 346 347 347 348 347 346 346 345 342 342 341 339 336 334 330 326 325 323 320 317 315 313 314 314
311 312 324 327 324 325 324 327 321 321 322 322 322 322 323 323 322 335 344 347 348 345 342 341 344 348 347 347 347 346 345 344 343 342 341 340 338 332 326 325 321 319 316 315 313 312 311 312 312
316 313 317 322 321 324 325 325 328 324 324 320 321 322 323 323 324 338 346 348 348 344 343 344 346 346 347 345 343 343 340 341 340 342 340 338 335 327 321 317 316 314 313 312 311 311 311 314 315
316 315 317 323 327 328 326 325 326 328 327 321 320 319 328 338 341 346 346 345 343 343 343 343 344 342 340 340 339 340 339 338 337 336 335 332 326 319 316 314 313 313 314 314 313 314 317 316 317
317 318 319 320 323 323 328 326 328 334 322 326 331 335 339 340 339 341 342 341 341 342 342 339 339 338 338 338 337 337 335 333 333 328 323 318 315 314 313 312 313 315 316 315 315 315 316 314 314
316 317 319 322 324 325 328 329 330 332 332 332 331 337 338 337 336 338 340 340 339 336 335 334 334 332 331 330 330 328 324 322 320 316 314 312 311 312 312 313 316 316 316 316 316 316 315 311 311
Wind_Speed
10 5 6 4 1 2 6 10 13 21 16 14 11 19 17 21 15 7 23 25 14 30 31 29 27 25 25 23 21 19 17 15 14 14 15 18 19 18 17 15 13 11 10 9 9 8 9 9 8
8 6 4 5 4 4 7 15 21 22 20 1 7 31 27 15 21 23 24 21 17 29 29 28 27 26 24 23 21 19 17 15 13 13 14 16 17 17 15 14 12 10 8 8 7 7 7 8 8
9 11 5 4 4 11 8 9 19 22 22 7 3 20 10 26 24 20 25 24 19 31 29 27 26 25 24 22 21 18 16 15 13 12 12 14 16 15 13 12 11 9 7 6 6 6 7 8 8
4 6 9 3 9 11 19 14 24 16 27 9 9 9 12 21 26 27 27 20 21 31 28 27 25 24 23 22 21 19 17 15 13 11 11 13 14 13 12 10 9 8 6 6 6 6 7 7 8
10 7 4 5 10 12 14 29 38 19 22 13 4 6 10 17 28 33 27 19 24 30 29 27 25 23 22 22 22 20 18 16 13 11 10 11 13 12 11 9 8 7 6 6 6 5 6 6 6
6 7 3 13 10 17 18 33 31 17 28 24 5 11 10 21 36 29 23 18 22 29 29 27 25 22 21 21 21 20 18 16 14 11 9 10 11 11 9 8 6 5 5 4 4 4 4 3 1
8 4 6 9 11 19 14 40 21 17 19 16 24 11 21 26 34 29 22 19 18 22 28 28 26 24 22 22 21 20 19 17 14 11 9 9 10 11 9 7 6 5 4 3 2 2 2 2 3
17 4 10 14 16 20 20 23 38 25 20 28 15 7 16 31 33 30 30 26 23 19 24 28 27 26 26 25 23 22 20 18 15 12 10 10 11 11 11 9 7 5 4 3 3 3 4 6 7
20 7 17 25 19 12 29 7 30 18 20 6 12 26 38 34 34 32 31 31 28 24 22 28 27 27 28 28 27 25 22 20 18 16 14 13 13 13 12 10 7 5 4 4 4 5 6 8 10
12 12 26 9 12 15 22 14 23 5 2 4 26 33 32 35 32 35 35 35 28 25 25 32 30 29 29 28 27 25 23 22 20 18 16 15 13 12 10 9 6 5 6 6 7 8 10 11 12
8 26 14 18 25 31 24 23 29 5 5 10 13 32 31 28 30 32 32 34 28 26 23 34 32 30 29 28 26 24 22 20 18 16 15 14 13 11 8 8 5 4 3 8 9 9 11 9 10
17 26 27 24 27 34 21 28 17 10 12 19 16 22 30 29 27 29 29 33 32 29 25 32 32 30 28 26 26 23 21 19 17 15 15 15 14 13 5 6 7 1 4 7 7 10 10 11 12
24 23 25 30 34 37 30 20 18 17 13 19 17 21 29 28 28 26 27 29 37 32 27 27 26 29 27 23 23 22 20 18 15 13 14 16 13 11 8 5 3 5 4 6 8 11 12 14 12
8 22 25 29 32 35 22 17 17 21 9 11 13 11 25 29 26 28 25 27 33 35 37 31 29 27 27 22 17 21 18 14 13 12 9 14 15 11 9 6 9 3 6 7 6 7 9 14 16
33 22 16 24 30 25 25 18 23 21 12 13 12 10 6 34 31 29 32 24 26 29 36 37 33 28 26 22 13 16 14 14 11 7 7 9 13 12 9 8 7 5 3 6 9 14 17 18 17
16 15 18 23 25 25 17 24 15 17 12 18 14 16 14 10 17 18 28 32 22 23 32 34 30 27 25 19 17 16 17 15 13 9 10 9 6 14 13 13 9 7 7 10 13 13 14 17 19
13 16 21 24 21 20 19 10 9 19 20 20 16 21 19 19 16 20 22 24 27 23 31 34 39 30 31 22 22 22 22 19 21 12 10 11 9 10 15 11 11 7 9 12 14 16 17 19 21
17 23 21 25 24 25 24 17 8 21 25 20 18 24 25 23 23 26 27 23 28 21 21 36 37 34 39 33 28 26 21 21 16 13 12 12 8 7 10 12 14 12 14 12 12 14 17 17 20
19 20 22 15 20 16 23 16 14 12 15 20 25 26 27 25 28 31 30 27 33 28 28 40 30 34 37 35 38 31 30 23 19 11 16 13 12 8 7 10 9 12 15 13 14 15 16 17 17
25 23 21 16 18 19 12 16 9 13 12 23 26 31 34 32 36 36 32 27 33 33 31 36 35 33 29 29 33 38 33 28 21 19 15 12 9 11 12 11 7 13 13 12 14 15 13 15 17
26 23 19 16 16 16 11 7 16 19 21 19 35 39 36 39 37 31 30 25 29 27 27 32 41 32 35 33 33 29 27 23 24 22 18 18 14 13 12 11 13 12 11 13 11 12 16 17 16
22 21 21 16 13 13 17 13 14 19 15 14 17 33 36 36 37 31 28 28 32 29 31 35 29 33 31 24 28 27 24 26 25 23 22 17 14 16 17 15 12 10 8 9 10 12 14 15 16
20 19 17 19 13 1 15 10 16 13 11 15 14 27 38 38 37 33 28 30 30 31 30 27 24 30 24 21 21 24 22 18 21 23 23 18 17 20 19 13 8 7 7 8 9 11 14 14 14
18 19 19 16 9 7 18 10 7 15 23 14 8 27 40 39 36 33 31 30 28 23 20 18 28 21 19 21 22 20 20 23 24 20 13 16 19 15 11 10 7 4 5 8 10 10 11 11 12
21 14 7 10 8 6 11 7 7 15 14 12 11 23 35 38 34 30 34 29 28 26 20 6 20 23 21 20 18 18 18 17 15 15 16 15 12 9 9 6 4 5 7 7 8 8 9 12 13
18 14 3 5 8 11 11 7 13 10 15 21 29 30 31 38 35 34 35 28 26 27 31 33 26 23 21 22 22 23 24 23 20 16 18 14 8 6 5 4 2 3 5 8 8 10 11 13 15
6 12 18 5 5 5 5 4 2 15 12 15 23 34 26 38 35 34 36 29 26 27 23 26 28 26 23 23 23 19 17 21 20 27 22 15 10 4 2 1 3 4 6 9 12 13 10 10 14
8 6 10 4 5 6 5 9 5 5 5 16 19 15 29 33 39 41 38 32 28 28 28 23 21 22 22 17 18 20 18 20 21 20 17 11 8 3 1 1 4 6 8 12 13 10 7 10 10
3 2 5 3 4 5 6 5 6 6 13 18 20 35 36 40 44 45 42 38 33 31 29 27 19 20 17 16 18 19 17 17 18 15 13 10 7 3 1 3 4 5 6 7 10 11 11 14 14
6 8 8 7 6 3 4 1 9 15 17 22 26 39 41 42 45 47 44 40 35 32 30 26 21 18 15 16 16 18 18 17 15 12 10 8 5 2 2 4 2 2 6 9 11 12 15 16 13
Wind_Direction
268 236 215 203 63 180 239 244 247 280 284 298 172 120 93 141 150 184 176 193 174 164 159 157 155 155 153 151 151 148 142 134 127 124 129 132 132 131 131 132 133 134 134 133 134 131 137 142 137
246 176 224 260 157 224 254 238 253 257 262 264 95 96 88 80 115 125 144 176 164 167 162 157 154 154 156 153 155 153 148 140 132 128 131 137 136 133 131 132 133 135 133 134 141 142 144 146 142
235 200 238 176 211 213 250 220 253 260 279 194 117 98 92 126 120 142 165 164 170 169 163 158 154 155 156 155 158 157 153 149 142 133 133 140 140 135 131 130 130 133 136 138 137 139 145 147 145
225 201 252 188 229 226 247 264 270 295 298 23 44 81 79 132 134 159 170 173 167 167 162 159 157 157 159 158 160 163 161 156 150 139 137 146 149 142 135 131 131 131 132 125 124 135 145 149 149
217 264 226 228 246 255 253 247 254 271 275 263 309 79 87 113 140 155 167 170 172 164 164 162 160 160 161 162 163 166 166 164 158 149 142 151 156 153 146 140 135 130 128 115 114 122 133 140 146
232 223 235 227 242 237 251 258 264 259 261 265 153 115 122 136 142 157 163 166 165 163 165 164 162 163 163 165 166 168 169 169 165 161 154 158 164 164 153 143 138 136 127 114 104 108 125 142 167
223 273 236 250 238 243 239 245 253 254 270 283 192 132 142 144 148 159 154 158 154 159 168 166 165 164 164 164 167 170 172 173 173 173 169 167 170 171 165 155 147 148 155 153 164 166 197 233 264
229 242 257 242 241 257 257 252 246 242 255 267 173 138 153 151 149 154 154 167 164 161 174 172 169 167 166 165 168 171 174 177 178 181 180 176 174 177 179 174 166 166 182 202 223 247 263 269 274
234 231 238 238 233 243 263 261 273 275 229 89 63 134 142 145 151 151 157 165 166 171 178 179 175 172 170 170 170 174 177 180 182 183 183 182 182 183 185 186 184 193 213 230 255 270 277 285 291
211 220 234 235 242 257 272 277 269 254 139 96 102 122 134 148 156 160 157 166 175 175 186 184 180 177 174 174 176 178 180 182 185 186 184 181 181 185 190 197 204 228 256 272 278 291 295 301 313
246 233 240 238 249 263 273 282 288 200 208 169 153 141 144 152 160 167 170 173 190 186 183 185 182 180 178 177 178 180 182 184 185 186 185 181 171 157 179 195 175 53 352 323 290 343 323 311 332
246 247 245 250 242 249 257 274 291 291 188 177 189 163 156 153 162 172 176 179 190 197 192 190 183 180 180 178 181 181 182 183 184 182 183 179 178 155 166 182 148 110 353 11 13 356 349 351 330
234 238 245 248 257 262 277 284 280 293 167 186 177 207 171 171 165 177 186 191 192 195 194 187 181 181 181 178 186 184 185 184 185 183 181 178 180 174 183 222 240 283 314 334 336 344 318 325 313
256 232 240 248 246 254 255 275 280 272 255 198 171 186 185 175 178 187 196 210 183 192 188 192 184 178 182 184 181 193 183 172 166 161 177 184 172 177 205 217 228 275 289 319 342 344 315 300 309
249 263 244 230 241 246 239 259 253 257 228 282 217 193 137 179 184 186 201 216 191 187 175 180 173 171 180 197 203 183 170 171 168 159 148 164 189 173 208 217 205 214 200 249 253 263 273 279 289
251 246 245 239 230 236 204 239 240 228 218 250 233 185 188 187 171 192 208 217 223 211 164 165 177 173 172 184 189 181 202 205 199 202 194 181 190 200 204 217 219 225 250 261 266 279 286 290 291
256 230 233 240 231 220 216 219 209 196 218 232 220 201 190 196 210 210 217 208 223 204 183 177 190 172 181 170 187 189 188 187 191 193 199 201 220 230 229 218 219 236 261 253 267 280 288 298 293
227 218 229 224 224 210 224 228 184 230 203 214 220 180 190 206 215 227 227 222 212 204 201 195 199 181 187 193 186 195 192 195 188 188 187 207 214 238 227 213 206 229 251 266 281 284 297 300 298
244 246 236 249 221 231 216 213 196 229 210 200 201 187 186 200 224 232 229 234 206 195 186 185 179 179 185 193 199 191 198 200 190 189 207 213 224 241 215 222 226 244 253 268 282 294 301 305 309
245 244 235 227 223 225 205 206 200 209 232 200 197 193 196 203 222 231 222 229 200 190 191 197 195 195 200 198 203 208 204 200 189 192 204 224 230 203 226 237 241 247 261 268 281 295 301 309 312
238 238 243 230 206 230 208 216 202 210 222 219 200 201 198 201 220 220 212 205 192 191 183 176 184 213 206 205 207 204 205 197 197 195 188 196 195 227 235 229 238 246 255 269 277 288 296 302 308
249 238 244 247 217 215 204 218 219 203 207 216 206 194 195 200 216 220 217 190 185 187 190 172 171 173 207 197 195 202 179 192 194 196 192 189 201 219 229 231 244 240 252 259 275 291 300 301 305
266 241 236 250 264 224 200 196 207 170 209 212 209 183 189 197 207 210 205 193 194 197 202 214 204 189 191 198 199 202 192 191 179 184 191 200 208 213 223 235 245 257 273 291 303 302 302 305 306
244 269 243 246 247 258 255 174 203 186 206 203 182 175 185 192 198 205 193 188 185 183 195 194 185 193 199 193 196 184 174 171 181 187 182 193 203 222 224 228 234 252 288 296 302 300 300 309 309
229 233 228 217 218 214 264 262 196 205 199 189 170 163 172 182 190 171 171 173 164 158 168 223 193 184 190 189 177 178 176 177 173 174 186 190 190 201 213 212 234 275 295 305 311 309 308 306 312
224 225 215 137 158 209 220 231 203 210 187 191 166 171 173 173 183 169 170 168 153 145 155 182 188 173 174 172 168 171 166 165 159 173 186 192 195 175 193 222 251 294 308 312 323 318 314 320 324
218 213 199 309 177 133 194 277 185 181 181 174 160 165 168 175 177 162 157 157 137 148 160 163 166 169 173 189 180 176 177 181 175 173 177 186 198 207 187 36 322 321 318 320 334 341 340 338 339
221 180 192 191 183 156 159 203 206 155 216 164 147 129 122 121 127 127 136 134 128 130 140 150 152 144 147 154 169 165 164 161 161 165 174 180 186 185 199 334 356 353 341 342 346 3 6 349 350
166 181 241 17 264 160 151 218 125 80 141 123 110 105 104 103 106 120 126 125 127 124 124 125 137 137 141 150 149 152 146 152 155 154 154 156 152 133 63 5 5 5 335 322 327 331 325 323 315
194 215 185 181 260 290 141 266 332 102 92 102 106 105 107 107 110 116 124 126 124 120 121 123 136 139 140 140 143 141 137 137 138 135 129 125 122 118 11 36 89 299 306 320 318 316 317 324 322